| time (UTC) | temp F | wind direction | speed MPH | gust MPH | rain 1hr in | rain 24hr in | rain mn in | humidity % | barometer mb |
| 20260508111004 | 65 | 178 | 3.0 | 12.0 | 0.00 | 0.00 | 0.00 | 52 | 1016.7 |
| 20260508110503 | 64 | 173 | 3.0 | 12.0 | 0.00 | 0.00 | 0.00 | 54 | 1016.6 |
| 20260508110003 | 65 | 185 | 4.0 | 12.0 | 0.00 | 0.00 | 0.00 | 51 | 1016.6 |
| 20260508105504 | 65 | 207 | 4.0 | 12.0 | 0.00 | 0.00 | 0.00 | 52 | 1016.6 |
| 20260508105004 | 65 | 218 | 4.0 | 11.0 | 0.00 | 0.00 | 0.00 | 52 | 1016.7 |
| 20260508104503 | 65 | 210 | 3.0 | 11.0 | 0.00 | 0.00 | 0.00 | 52 | 1016.7 |
| 20260508104003 | 65 | 213 | 3.0 | 10.0 | 0.00 | 0.00 | 0.00 | 51 | 1016.6 |
| 20260508103503 | 65 | 222 | 3.0 | 7.0 | 0.00 | 0.00 | 0.00 | 50 | 1016.6 |
| 20260508103024 | 65 | 207 | 3.0 | 10.0 | 0.00 | 0.00 | 0.00 | 51 | 1016.7 |
| 20260508102504 | 65 | 192 | 3.0 | 10.0 | 0.00 | 0.00 | 0.00 | 53 | 1016.6 |
| 20260508102004 | 65 | 189 | 3.0 | 11.0 | 0.00 | 0.00 | 0.00 | 53 | 1016.6 |
| 20260508101503 | 65 | 202 | 2.0 | 11.0 | 0.00 | 0.00 | 0.00 | 53 | 1016.6 |
| 20260508101003 | 65 | 210 | 2.0 | 10.0 | 0.00 | 0.00 | 0.00 | 52 | 1016.6 |
| 20260508100504 | 64 | 188 | 2.0 | 10.0 | 0.00 | 0.00 | 0.00 | 55 | 1016.6 |
| 20260508100004 | 64 | 202 | 3.0 | 10.0 | 0.00 | 0.00 | 0.00 | 56 | 1016.6 |
| 20260508095504 | 64 | 197 | 3.0 | 10.0 | 0.00 | 0.00 | 0.00 | 54 | 1016.6 |
| 20260508095004 | 64 | 202 | 3.0 | 8.0 | 0.00 | 0.00 | 0.00 | 55 | 1016.6 |
| 20260508094503 | 63 | 215 | 3.0 | 8.0 | 0.00 | 0.00 | 0.00 | 55 | 1016.5 |
| 20260508094004 | 63 | 224 | 3.0 | 11.0 | 0.00 | 0.00 | 0.00 | 55 | 1016.6 |
| 20260508093503 | 63 | 227 | 3.0 | 11.0 | 0.00 | 0.00 | 0.00 | 55 | 1016.6 |
| 20260508093025 | 63 | 212 | 3.0 | 11.0 | 0.00 | 0.00 | 0.00 | 56 | 1016.5 |
| 20260508092525 | 63 | 216 | 3.0 | 11.0 | 0.00 | 0.00 | 0.00 | 59 | 1016.5 |
| 20260508092006 | 63 | 226 | 3.0 | 11.0 | 0.00 | 0.00 | 0.00 | 58 | 1016.5 |
| 20260508091503 | 62 | 212 | 2.0 | 8.0 | 0.00 | 0.00 | 0.00 | 61 | 1016.5 |
| 20260508091004 | 62 | 200 | 2.0 | 8.0 | 0.00 | 0.00 | 0.00 | 61 | 1016.5 |
| 20260508090503 | 61 | 204 | 3.0 | 8.0 | 0.00 | 0.00 | 0.00 | 63 | 1016.5 |
| 20260508090004 | 61 | 198 | 3.0 | 12.0 | 0.00 | 0.00 | 0.00 | 64 | 1016.5 |
| 20260508085503 | 60 | 188 | 3.0 | 12.0 | 0.00 | 0.00 | 0.00 | 66 | 1016.5 |
| 20260508085004 | 60 | 204 | 3.0 | 12.0 | 0.00 | 0.00 | 0.00 | 67 | 1016.5 |
| 20260508084525 | 60 | 206 | 3.0 | 12.0 | 0.00 | 0.00 | 0.00 | 67 | 1016.5 |
| 20260508084025 | 59 | 207 | 3.0 | 8.0 | 0.00 | 0.00 | 0.00 | 66 | 1016.5 |
| 20260508083503 | 59 | 204 | 4.0 | 8.0 | 0.00 | 0.00 | 0.00 | 67 | 1016.6 |
| 20260508083004 | 59 | 214 | 3.0 | 8.0 | 0.00 | 0.00 | 0.00 | 66 | 1016.6 |
| 20260508082504 | 60 | 227 | 3.0 | 8.0 | 0.00 | 0.00 | 0.00 | 67 | 1016.5 |
| 20260508082004 | 60 | 230 | 3.0 | 7.0 | 0.00 | 0.00 | 0.00 | 68 | 1016.5 |
| 20260508081504 | 59 | 222 | 3.0 | 7.0 | 0.00 | 0.00 | 0.00 | 70 | 1016.5 |
| 20260508081004 | 59 | 211 | 3.0 | 8.0 | 0.00 | 0.00 | 0.00 | 70 | 1016.5 |
| 20260508080504 | 58 | 192 | 4.0 | 8.0 | 0.00 | 0.00 | 0.00 | 70 | 1016.4 |
| 20260508080004 | 58 | 204 | 4.0 | 10.0 | 0.00 | 0.00 | 0.00 | 72 | 1016.4 |
| 20260508075504 | 58 | 211 | 4.0 | 11.0 | 0.00 | 0.00 | 0.00 | 71 | 1016.5 |
| 20260508075003 | 57 | 210 | 4.0 | 11.0 | 0.00 | 0.00 | 0.00 | 72 | 1016.4 |
| 20260508074504 | 57 | 212 | 3.0 | 11.0 | 0.00 | 0.00 | 0.00 | 72 | 1016.4 |
| 20260508074004 | 57 | 203 | 3.0 | 12.0 | 0.00 | 0.00 | 0.00 | 72 | 1016.3 |
| 20260508073504 | 57 | 214 | 3.0 | 12.0 | 0.00 | 0.00 | 0.00 | 72 | 1016.3 |
| 20260508073003 | 57 | 237 | 3.0 | 7.0 | 0.00 | 0.00 | 0.00 | 73 | 1016.4 |
| 20260508072504 | 56 | 218 | 4.0 | 7.0 | 0.00 | 0.00 | 0.00 | 74 | 1016.3 |
| 20260508072004 | 56 | 213 | 4.0 | 10.0 | 0.00 | 0.00 | 0.00 | 75 | 1016.3 |
| 20260508071504 | 56 | 217 | 3.0 | 10.0 | 0.00 | 0.00 | 0.00 | 74 | 1016.3 |
| 20260508071003 | 55 | 215 | 3.0 | 7.0 | 0.00 | 0.00 | 0.00 | 75 | 1016.3 |
| 20260508070503 | 55 | 218 | 2.0 | 11.0 | 0.00 | 0.00 | 0.00 | 76 | 1016.2 |
| 20260508070004 | 54 | 219 | 2.0 | 11.0 | 0.00 | 0.00 | 0.00 | 77 | 1016.2 |
| 20260508065503 | 54 | 216 | 1.0 | 7.0 | 0.00 | 0.00 | 0.00 | 78 | 1016.1 |
| 20260508065004 | 53 | 202 | 1.0 | 7.0 | 0.00 | 0.00 | 0.00 | 79 | 1016.1 |
| 20260508064504 | 53 | 186 | 1.0 | 5.0 | 0.00 | 0.00 | 0.00 | 79 | 1016.0 |
| 20260508064003 | 52 | 184 | 1.0 | 4.0 | 0.00 | 0.00 | 0.00 | 81 | 1015.8 |
| 20260508063504 | 52 | 197 | 1.0 | 4.0 | 0.00 | 0.00 | 0.00 | 81 | 1015.8 |
| 20260508063004 | 52 | 200 | 1.0 | 4.0 | 0.00 | 0.00 | 0.00 | 81 | 1015.8 |
| 20260508062503 | 52 | 191 | 1.0 | 4.0 | 0.00 | 0.00 | 0.00 | 81 | 1015.8 |
| 20260508062004 | 52 | 180 | 1.0 | 7.0 | 0.00 | 0.00 | 0.00 | 81 | 1015.7 |
| 20260508061503 | 51 | 178 | 1.0 | 7.0 | 0.00 | 0.00 | 0.00 | 81 | 1015.6 |
| 20260508061004 | 51 | 171 | 0.0 | 7.0 | 0.00 | 0.00 | 0.00 | 82 | 1015.6 |
| 20260508060503 | 51 | 162 | 0.0 | 7.0 | 0.00 | 0.00 | 0.00 | 83 | 1015.5 |
| 20260508060004 | 50 | 153 | 0.0 | 5.0 | 0.00 | 0.00 | 0.00 | 84 | 1015.5 |
| 20260508055525 | 50 | 155 | 1.0 | 4.0 | 0.00 | 0.00 | 0.00 | 84 | 1015.5 |
| 20260508055004 | 50 | 158 | 1.0 | 5.0 | 0.00 | 0.00 | 0.00 | 84 | 1015.4 |
| 20260508054525 | 50 | 156 | 1.0 | 5.0 | 0.00 | 0.00 | 0.00 | 83 | 1015.4 |
| 20260508054003 | 50 | 0 | 0.0 | 4.0 | 0.00 | 0.00 | 0.00 | 83 | 1015.5 |
| 20260508053503 | 50 | 150 | 0.0 | 3.0 | 0.00 | 0.00 | 0.00 | 83 | 1015.4 |
| 20260508053004 | 50 | 150 | 0.0 | 4.0 | 0.00 | 0.00 | 0.00 | 83 | 1015.4 |
| 20260508052503 | 50 | 146 | 1.0 | 4.0 | 0.00 | 0.00 | 0.00 | 83 | 1015.3 |
| 20260508052003 | 49 | 148 | 1.0 | 7.0 | 0.00 | 0.00 | 0.00 | 83 | 1015.2 |
| 20260508051503 | 49 | 151 | 0.0 | 7.0 | 0.00 | 0.00 | 0.00 | 84 | 1015.1 |
| 20260508051003 | 49 | 0 | 4.0 | 4.0 | 0.00 | 0.00 | 0.00 | 84 | 1015.1 |
| 20260508050504 | 49 | 0 | 4.0 | 4.0 | 0.00 | 0.00 | 0.00 | 84 | 1015.1 |
| 20260508050004 | 49 | 0 | 4.0 | 4.0 | 0.00 | 0.00 | 0.00 | 84 | 1015.2 |
| 20260508045504 | 49 | 0 | 3.0 | 3.0 | 0.00 | 0.00 | 0.00 | 84 | 1015.2 |
| 20260508045003 | 49 | 0 | 1.0 | 1.0 | 0.00 | 0.00 | 0.00 | 84 | 1015.2 |
| 20260508044504 | 49 | 0 | 1.0 | 1.0 | 0.00 | 0.00 | 0.00 | 84 | 1015.2 |
| 20260508044004 | 49 | 0 | 4.0 | 4.0 | 0.00 | 0.00 | 0.00 | 84 | 1015.2 |
| 20260508043525 | 49 | 0 | 4.0 | 4.0 | 0.00 | 0.00 | 0.00 | 84 | 1015.1 |
| 20260508043004 | 49 | 0 | 4.0 | 4.0 | 0.00 | 0.00 | 0.00 | 84 | 1015.2 |
| 20260508042524 | 49 | 0 | 4.0 | 4.0 | 0.00 | 0.00 | 0.00 | 84 | 1015.0 |
| 20260508042003 | 48 | 0 | 3.0 | 3.0 | 0.00 | 0.00 | 0.00 | 84 | 1015.0 |
| 20260508041504 | 48 | 0 | 3.0 | 3.0 | 0.00 | 0.00 | 0.00 | 83 | 1015.0 |
| 20260508041003 | 48 | 0 | 4.0 | 4.0 | 0.00 | 0.00 | 0.00 | 83 | 1015.1 |
| 20260508040503 | 48 | 0 | 4.0 | 4.0 | 0.00 | 0.00 | 0.00 | 83 | 1015.0 |
| 20260508040004 | 48 | 0 | 5.0 | 5.0 | 0.00 | 0.00 | 0.00 | 84 | 1015.0 |
| 20260508035504 | 48 | 0 | 5.0 | 5.0 | 0.00 | 0.00 | 0.00 | 83 | 1015.0 |
| 20260508035003 | 48 | 0 | 3.0 | 3.0 | 0.00 | 0.00 | 0.00 | 83 | 1015.0 |
| 20260508034503 | 48 | 0 | 3.0 | 3.0 | 0.00 | 0.00 | 0.00 | 83 | 1015.0 |
| 20260508034004 | 48 | 0 | 1.0 | 1.0 | 0.00 | 0.00 | 0.00 | 82 | 1015.0 |
| 20260508033504 | 48 | 0 | 1.0 | 1.0 | 0.00 | 0.00 | 0.00 | 82 | 1015.0 |
| 20260508033003 | 49 | 0 | 3.0 | 3.0 | 0.00 | 0.00 | 0.00 | 81 | 1014.9 |
| 20260508032525 | 49 | 0 | 3.0 | 3.0 | 0.00 | 0.00 | 0.00 | 81 | 1014.9 |
| 20260508032003 | 49 | 0 | 0.0 | 3.0 | 0.00 | 0.00 | 0.00 | 80 | 1014.8 |
| 20260508031503 | 49 | 0 | 0.0 | 3.0 | 0.00 | 0.00 | 0.00 | 80 | 1014.9 |
| 20260508031004 | 50 | 0 | 0.0 | 3.0 | 0.00 | 0.00 | 0.00 | 80 | 1014.9 |
| 20260508030504 | 50 | 0 | 0.0 | 1.0 | 0.00 | 0.00 | 0.00 | 79 | 1014.8 |
| 20260508030003 | 50 | 0 | 0.0 | 3.0 | 0.00 | 0.00 | 0.00 | 79 | 1014.8 |
| 20260508025504 | 50 | 0 | 0.0 | 3.0 | 0.00 | 0.00 | 0.00 | 79 | 1014.8 |
| 20260508025003 | 51 | 0 | 0.0 | 4.0 | 0.00 | 0.00 | 0.00 | 78 | 1014.8 |
| 20260508024504 | 51 | 0 | 0.0 | 4.0 | 0.00 | 0.00 | 0.00 | 78 | 1014.8 |
| 20260508024003 | 51 | 158 | 0.0 | 3.0 | 0.00 | 0.00 | 0.00 | 77 | 1014.9 |
| 20260508023504 | 51 | 152 | 0.0 | 1.0 | 0.00 | 0.00 | 0.00 | 77 | 1014.8 |
| 20260508023003 | 52 | 154 | 1.0 | 7.0 | 0.00 | 0.00 | 0.00 | 76 | 1014.7 |
| 20260508022504 | 52 | 154 | 1.0 | 7.0 | 0.00 | 0.00 | 0.00 | 76 | 1014.7 |
| 20260508022004 | 52 | 161 | 1.0 | 4.0 | 0.00 | 0.00 | 0.00 | 76 | 1014.7 |
| 20260508021504 | 52 | 187 | 2.0 | 7.0 | 0.00 | 0.00 | 0.00 | 76 | 1014.7 |
| 20260508021003 | 52 | 187 | 2.0 | 7.0 | 0.00 | 0.00 | 0.00 | 76 | 1014.7 |
| 20260508020503 | 52 | 195 | 3.0 | 7.0 | 0.00 | 0.00 | 0.00 | 76 | 1014.6 |
| 20260508020003 | 52 | 190 | 3.0 | 8.0 | 0.00 | 0.00 | 0.00 | 76 | 1014.6 |
| 20260508015504 | 52 | 179 | 2.0 | 8.0 | 0.00 | 0.00 | 0.00 | 76 | 1014.6 |
| 20260508015003 | 52 | 190 | 1.0 | 10.0 | 0.00 | 0.00 | 0.00 | 77 | 1014.7 |
| 20260508014503 | 51 | 175 | 1.0 | 11.0 | 0.00 | 0.00 | 0.00 | 77 | 1014.6 |
| 20260508014025 | 51 | 170 | 1.0 | 11.0 | 0.00 | 0.00 | 0.00 | 77 | 1014.7 |
| 20260508013503 | 51 | 180 | 0.0 | 7.0 | 0.00 | 0.00 | 0.00 | 78 | 1014.7 |
| 20260508013003 | 51 | 180 | 1.0 | 7.0 | 0.00 | 0.00 | 0.00 | 78 | 1014.7 |
| 20260508012524 | 51 | 185 | 1.0 | 7.0 | 0.00 | 0.00 | 0.00 | 78 | 1014.7 |
| 20260508012003 | 51 | 198 | 1.0 | 7.0 | 0.00 | 0.00 | 0.00 | 79 | 1014.7 |
| 20260508011504 | 51 | 197 | 1.0 | 7.0 | 0.00 | 0.00 | 0.00 | 78 | 1014.8 |
| 20260508011003 | 51 | 0 | 0.0 | 7.0 | 0.00 | 0.00 | 0.00 | 79 | 1014.7 |
| 20260508010503 | 51 | 170 | 0.0 | 4.0 | 0.00 | 0.00 | 0.00 | 80 | 1014.7 |
| 20260508010004 | 51 | 170 | 0.0 | 4.0 | 0.00 | 0.00 | 0.00 | 80 | 1014.8 |
| 20260508005504 | 51 | 153 | 1.0 | 7.0 | 0.00 | 0.00 | 0.00 | 80 | 1014.8 |
| 20260508005003 | 51 | 150 | 1.0 | 7.0 | 0.00 | 0.00 | 0.00 | 79 | 1014.8 |
| 20260508004504 | 51 | 147 | 1.0 | 10.0 | 0.00 | 0.00 | 0.00 | 79 | 1014.8 |
| 20260508004003 | 51 | 151 | 2.0 | 10.0 | 0.00 | 0.00 | 0.00 | 79 | 1014.8 |
| 20260508003503 | 51 | 151 | 3.0 | 10.0 | 0.00 | 0.00 | 0.00 | 79 | 1014.8 |
| 20260508003004 | 51 | 148 | 3.0 | 10.0 | 0.00 | 0.00 | 0.00 | 79 | 1014.8 |
| 20260508002503 | 51 | 145 | 2.0 | 11.0 | 0.00 | 0.00 | 0.00 | 79 | 1014.8 |
| 20260508002003 | 51 | 145 | 2.0 | 11.0 | 0.00 | 0.00 | 0.00 | 79 | 1014.8 |
| 20260508001504 | 51 | 151 | 2.0 | 11.0 | 0.00 | 0.00 | 0.00 | 79 | 1014.9 |
| 20260508001003 | 52 | 153 | 3.0 | 11.0 | 0.00 | 0.00 | 0.00 | 78 | 1014.9 |
| 20260508000503 | 52 | 147 | 4.0 | 12.0 | 0.00 | 0.00 | 0.00 | 78 | 1014.9 |
| 20260508000004 | 52 | 144 | 4.0 | 12.0 | 0.00 | 0.00 | 0.00 | 76 | 1015.0 |
| 20260507235504 | 52 | 144 | 3.0 | 12.0 | 0.00 | 0.00 | 0.00 | 76 | 1015.0 |
| 20260507235003 | 52 | 144 | 3.0 | 11.0 | 0.00 | 0.00 | 0.00 | 75 | 1014.9 |
| 20260507234503 | 52 | 143 | 2.0 | 11.0 | 0.00 | 0.00 | 0.00 | 75 | 1015.0 |
| 20260507234024 | 52 | 142 | 2.0 | 12.0 | 0.00 | 0.00 | 0.00 | 75 | 1014.9 |
| 20260507233524 | 52 | 140 | 3.0 | 12.0 | 0.00 | 0.00 | 0.00 | 75 | 1014.9 |
| 20260507233004 | 52 | 140 | 2.0 | 14.0 | 0.00 | 0.00 | 0.00 | 75 | 1014.9 |
| 20260507232504 | 52 | 139 | 2.0 | 14.0 | 0.00 | 0.00 | 0.00 | 75 | 1014.8 |
| 20260507232005 | 52 | 133 | 2.0 | 11.0 | 0.00 | 0.00 | 0.00 | 75 | 1014.9 |
| 20260507231525 | 52 | 143 | 2.0 | 8.0 | 0.00 | 0.00 | 0.00 | 75 | 1014.9 |
| 20260507231003 | 52 | 155 | 2.0 | 15.0 | 0.00 | 0.00 | 0.00 | 75 | 1014.8 |
| 20260507230524 | 52 | 155 | 2.0 | 15.0 | 0.00 | 0.00 | 0.00 | 75 | 1014.7 |
| 20260507230005 | 52 | 145 | 2.0 | 10.0 | 0.00 | 0.00 | 0.00 | 74 | 1014.8 |
| 20260507225504 | 52 | 134 | 2.0 | 10.0 | 0.00 | 0.00 | 0.00 | 74 | 1014.9 |
| 20260507225004 | 52 | 139 | 3.0 | 10.0 | 0.00 | 0.00 | 0.00 | 74 | 1014.8 |
| 20260507224505 | 52 | 140 | 3.0 | 11.0 | 0.00 | 0.00 | 0.00 | 74 | 1014.8 |
| 20260507224003 | 52 | 127 | 3.0 | 11.0 | 0.00 | 0.00 | 0.00 | 74 | 1014.7 |
| 20260507223503 | 52 | 123 | 3.0 | 14.0 | 0.00 | 0.00 | 0.00 | 74 | 1014.7 |
| 20260507223025 | 52 | 133 | 3.0 | 14.0 | 0.00 | 0.00 | 0.00 | 74 | 1014.7 |
| 20260507222504 | 53 | 126 | 3.0 | 11.0 | 0.00 | 0.00 | 0.00 | 74 | 1014.7 |
| 20260507222003 | 53 | 130 | 4.0 | 16.0 | 0.00 | 0.00 | 0.00 | 74 | 1014.7 |
| 20260507221503 | 53 | 138 | 4.0 | 16.0 | 0.00 | 0.00 | 0.00 | 73 | 1014.7 |
| 20260507221004 | 53 | 143 | 3.0 | 16.0 | 0.00 | 0.00 | 0.00 | 73 | 1014.6 |
| 20260507220524 | 53 | 147 | 3.0 | 16.0 | 0.00 | 0.00 | 0.00 | 73 | 1014.6 |
| 20260507220003 | 53 | 149 | 3.0 | 12.0 | 0.00 | 0.00 | 0.00 | 73 | 1014.8 |
| 20260507215503 | 53 | 149 | 3.0 | 12.0 | 0.00 | 0.00 | 0.00 | 72 | 1014.7 |
| 20260507215004 | 53 | 147 | 3.0 | 11.0 | 0.00 | 0.00 | 0.00 | 72 | 1014.8 |
| 20260507214504 | 53 | 145 | 3.0 | 11.0 | 0.00 | 0.00 | 0.00 | 72 | 1014.8 |
| 20260507214003 | 53 | 148 | 4.0 | 12.0 | 0.00 | 0.00 | 0.00 | 72 | 1014.8 |
| 20260507213525 | 53 | 152 | 4.0 | 12.0 | 0.00 | 0.00 | 0.00 | 73 | 1014.8 |
| 20260507213004 | 53 | 155 | 4.0 | 11.0 | 0.00 | 0.00 | 0.00 | 73 | 1014.8 |
| 20260507212503 | 53 | 154 | 3.0 | 11.0 | 0.00 | 0.00 | 0.00 | 73 | 1014.8 |
| 20260507212004 | 53 | 152 | 3.0 | 12.0 | 0.00 | 0.00 | 0.00 | 73 | 1014.8 |
| 20260507211503 | 53 | 153 | 3.0 | 12.0 | 0.00 | 0.00 | 0.00 | 74 | 1014.7 |
| 20260507211003 | 53 | 153 | 4.0 | 10.0 | 0.00 | 0.00 | 0.00 | 74 | 1014.7 |
| 20260507210524 | 53 | 156 | 4.0 | 14.0 | 0.00 | 0.00 | 0.00 | 74 | 1014.7 |
| 20260507210025 | 53 | 158 | 3.0 | 14.0 | 0.00 | 0.00 | 0.00 | 74 | 1014.6 |
| 20260507205504 | 53 | 158 | 3.0 | 11.0 | 0.00 | 0.00 | 0.00 | 74 | 1014.7 |
| 20260507205003 | 53 | 161 | 2.0 | 10.0 | 0.00 | 0.00 | 0.00 | 74 | 1014.5 |
| 20260507204504 | 53 | 158 | 2.0 | 11.0 | 0.00 | 0.00 | 0.00 | 74 | 1014.6 |
| 20260507204004 | 53 | 155 | 1.0 | 11.0 | 0.00 | 0.00 | 0.00 | 73 | 1014.6 |
| 20260507203504 | 53 | 164 | 1.0 | 7.0 | 0.00 | 0.00 | 0.00 | 74 | 1014.6 |
| 20260507203003 | 53 | 158 | 1.0 | 7.0 | 0.00 | 0.00 | 0.00 | 74 | 1014.6 |
| 20260507202504 | 53 | 157 | 1.0 | 7.0 | 0.00 | 0.00 | 0.00 | 73 | 1014.5 |
| 20260507202003 | 53 | 168 | 1.0 | 7.0 | 0.00 | 0.00 | 0.00 | 74 | 1014.5 |
| 20260507201504 | 53 | 166 | 1.0 | 8.0 | 0.00 | 0.00 | 0.00 | 73 | 1014.5 |
| 20260507201003 | 53 | 159 | 2.0 | 8.0 | 0.00 | 0.00 | 0.00 | 73 | 1014.5 |
| 20260507200504 | 53 | 158 | 3.0 | 8.0 | 0.00 | 0.00 | 0.00 | 73 | 1014.5 |
| 20260507200004 | 53 | 160 | 3.0 | 8.0 | 0.00 | 0.00 | 0.00 | 73 | 1014.5 |
| 20260507195503 | 54 | 159 | 3.0 | 10.0 | 0.00 | 0.00 | 0.00 | 72 | 1014.4 |
| 20260507195004 | 54 | 156 | 3.0 | 10.0 | 0.00 | 0.00 | 0.00 | 72 | 1014.4 |
| 20260507194504 | 54 | 158 | 3.0 | 10.0 | 0.00 | 0.00 | 0.00 | 71 | 1014.3 |
| 20260507194003 | 54 | 159 | 3.0 | 10.0 | 0.00 | 0.00 | 0.00 | 70 | 1014.3 |
| 20260507193504 | 54 | 157 | 3.0 | 10.0 | 0.00 | 0.00 | 0.00 | 68 | 1014.2 |
| 20260507193004 | 55 | 158 | 3.0 | 11.0 | 0.00 | 0.00 | 0.00 | 66 | 1014.2 |
| 20260507192505 | 55 | 160 | 3.0 | 11.0 | 0.00 | 0.00 | 0.00 | 65 | 1014.1 |
| 20260507192003 | 55 | 160 | 3.0 | 11.0 | 0.00 | 0.00 | 0.00 | 64 | 1014.1 |
| 20260507191504 | 55 | 159 | 2.0 | 11.0 | 0.00 | 0.00 | 0.00 | 64 | 1014.0 |
| 20260507191003 | 55 | 158 | 2.0 | 12.0 | 0.00 | 0.00 | 0.00 | 63 | 1014.1 |
| 20260507190504 | 55 | 160 | 1.0 | 12.0 | 0.00 | 0.00 | 0.00 | 63 | 1014.1 |
| 20260507190005 | 55 | 158 | 1.0 | 7.0 | 0.00 | 0.00 | 0.00 | 64 | 1014.1 |
| 20260507185503 | 56 | 153 | 1.0 | 7.0 | 0.00 | 0.00 | 0.00 | 63 | 1014.1 |
| 20260507185003 | 56 | 149 | 0.0 | 4.0 | 0.00 | 0.00 | 0.00 | 63 | 1014.0 |
| 20260507184503 | 56 | 0 | 0.0 | 4.0 | 0.00 | 0.00 | 0.00 | 63 | 1014.0 |
| 20260507184004 | 56 | 0 | 0.0 | 3.0 | 0.00 | 0.00 | 0.00 | 63 | 1014.0 |
| 20260507183503 | 56 | 0 | 0.0 | 3.0 | 0.00 | 0.00 | 0.00 | 62 | 1014.0 |
| 20260507183004 | 56 | 0 | 0.0 | 1.0 | 0.00 | 0.00 | 0.00 | 62 | 1014.1 |
| 20260507182503 | 56 | 155 | 0.0 | 1.0 | 0.00 | 0.00 | 0.00 | 63 | 1014.0 |
| 20260507182003 | 56 | 151 | 1.0 | 8.0 | 0.00 | 0.00 | 0.00 | 63 | 1014.0 |
| 20260507181503 | 56 | 143 | 2.0 | 8.0 | 0.00 | 0.00 | 0.00 | 62 | 1013.9 |
| 20260507181004 | 56 | 153 | 2.0 | 8.0 | 0.00 | 0.00 | 0.00 | 62 | 1013.9 |
| 20260507180503 | 56 | 159 | 2.0 | 8.0 | 0.00 | 0.00 | 0.00 | 61 | 1013.8 |
| 20260507180003 | 57 | 163 | 1.0 | 8.0 | 0.00 | 0.00 | 0.00 | 61 | 1013.7 |
| 20260507175504 | 57 | 155 | 1.0 | 8.0 | 0.00 | 0.00 | 0.00 | 61 | 1013.8 |
| 20260507175003 | 57 | 150 | 1.0 | 8.0 | 0.00 | 0.00 | 0.00 | 61 | 1013.8 |
| 20260507174524 | 57 | 143 | 2.0 | 5.0 | 0.00 | 0.00 | 0.00 | 61 | 1013.9 |
| 20260507174004 | 57 | 148 | 1.0 | 7.0 | 0.00 | 0.00 | 0.00 | 61 | 1013.9 |
| 20260507173526 | 57 | 149 | 1.0 | 7.0 | 0.00 | 0.00 | 0.00 | 61 | 1014.0 |
| 20260507173004 | 58 | 161 | 1.0 | 7.0 | 0.00 | 0.00 | 0.00 | 61 | 1014.0 |
| 20260507172504 | 58 | 181 | 1.0 | 7.0 | 0.00 | 0.00 | 0.00 | 61 | 1014.0 |
| 20260507172003 | 58 | 186 | 1.0 | 5.0 | 0.00 | 0.00 | 0.00 | 61 | 1014.0 |
| 20260507171503 | 58 | 205 | 1.0 | 7.0 | 0.00 | 0.00 | 0.00 | 63 | 1014.1 |
| 20260507171025 | 58 | 196 | 1.0 | 7.0 | 0.00 | 0.00 | 0.00 | 62 | 1014.1 |
| 20260507170525 | 58 | 192 | 1.0 | 5.0 | 0.00 | 0.00 | 0.00 | 62 | 1014.2 |
| 20260507170004 | 58 | 196 | 1.0 | 7.0 | 0.00 | 0.00 | 0.00 | 63 | 1014.2 |
| 20260507165504 | 57 | 198 | 2.0 | 7.0 | 0.00 | 0.00 | 0.00 | 62 | 1014.3 |
| 20260507165004 | 57 | 208 | 2.0 | 7.0 | 0.00 | 0.00 | 0.00 | 62 | 1014.4 |
| 20260507164503 | 57 | 207 | 3.0 | 10.0 | 0.00 | 0.00 | 0.00 | 62 | 1014.3 |
| 20260507164003 | 57 | 207 | 3.0 | 10.0 | 0.00 | 0.00 | 0.00 | 62 | 1014.3 |
| 20260507163503 | 57 | 221 | 3.0 | 7.0 | 0.00 | 0.00 | 0.00 | 62 | 1014.3 |
| 20260507163003 | 57 | 220 | 3.0 | 7.0 | 0.00 | 0.00 | 0.00 | 64 | 1014.3 |
| 20260507162503 | 57 | 213 | 2.0 | 7.0 | 0.00 | 0.00 | 0.00 | 62 | 1014.4 |
| 20260507162026 | 56 | 206 | 2.0 | 7.0 | 0.00 | 0.00 | 0.00 | 64 | 1014.3 |
| 20260507161504 | 56 | 183 | 1.0 | 7.0 | 0.00 | 0.00 | 0.00 | 64 | 1014.4 |
| 20260507161003 | 56 | 192 | 2.0 | 10.0 | 0.00 | 0.00 | 0.00 | 63 | 1014.4 |
| 20260507160504 | 56 | 193 | 2.0 | 10.0 | 0.00 | 0.00 | 0.00 | 65 | 1014.4 |
| 20260507160003 | 56 | 186 | 2.0 | 11.0 | 0.00 | 0.00 | 0.00 | 64 | 1014.4 |
| 20260507155504 | 56 | 193 | 2.0 | 11.0 | 0.00 | 0.00 | 0.00 | 64 | 1014.4 |
| 20260507155004 | 56 | 208 | 3.0 | 8.0 | 0.00 | 0.00 | 0.00 | 65 | 1014.4 |
| 20260507154503 | 55 | 210 | 2.0 | 8.0 | 0.00 | 0.00 | 0.00 | 64 | 1014.4 |
| 20260507154005 | 56 | 202 | 1.0 | 7.0 | 0.00 | 0.00 | 0.00 | 65 | 1014.5 |
| 20260507153504 | 56 | 184 | 1.0 | 7.0 | 0.00 | 0.00 | 0.00 | 64 | 1014.6 |
| 20260507153003 | 56 | 191 | 1.0 | 7.0 | 0.00 | 0.00 | 0.00 | 64 | 1014.6 |
| 20260507152504 | 56 | 216 | 1.0 | 5.0 | 0.00 | 0.00 | 0.00 | 64 | 1014.6 |
| 20260507152003 | 56 | 196 | 2.0 | 10.0 | 0.00 | 0.00 | 0.00 | 64 | 1014.6 |
| 20260507151504 | 56 | 186 | 2.0 | 10.0 | 0.00 | 0.00 | 0.00 | 63 | 1014.6 |
| 20260507151005 | 56 | 188 | 2.0 | 10.0 | 0.00 | 0.00 | 0.00 | 63 | 1014.6 |
| 20260507150503 | 56 | 180 | 3.0 | 12.0 | 0.00 | 0.00 | 0.00 | 62 | 1014.7 |
| 20260507150004 | 56 | 177 | 2.0 | 12.0 | 0.00 | 0.00 | 0.00 | 64 | 1014.7 |
| 20260507145504 | 56 | 174 | 2.0 | 12.0 | 0.00 | 0.00 | 0.00 | 63 | 1014.7 |
| 20260507145004 | 56 | 170 | 2.0 | 12.0 | 0.00 | 0.00 | 0.00 | 65 | 1014.7 |
| 20260507144503 | 56 | 188 | 3.0 | 8.0 | 0.00 | 0.00 | 0.00 | 67 | 1014.8 |
| 20260507144004 | 56 | 207 | 3.0 | 8.0 | 0.00 | 0.00 | 0.00 | 66 | 1014.8 |
| 20260507143503 | 55 | 200 | 3.0 | 8.0 | 0.00 | 0.00 | 0.00 | 67 | 1014.8 |
| 20260507143025 | 55 | 184 | 3.0 | 10.0 | 0.00 | 0.00 | 0.00 | 67 | 1014.9 |
| 20260507142504 | 54 | 194 | 4.0 | 10.0 | 0.00 | 0.00 | 0.00 | 67 | 1014.9 |
| 20260507142003 | 54 | 201 | 4.0 | 14.0 | 0.00 | 0.00 | 0.00 | 66 | 1015.0 |
| 20260507141503 | 54 | 197 | 3.0 | 14.0 | 0.00 | 0.00 | 0.00 | 66 | 1015.0 |
| 20260507141003 | 55 | 190 | 3.0 | 11.0 | 0.00 | 0.00 | 0.00 | 65 | 1015.0 |
| 20260507140503 | 55 | 152 | 3.0 | 11.0 | 0.00 | 0.00 | 0.00 | 66 | 1015.0 |
| 20260507140003 | 55 | 172 | 4.0 | 11.0 | 0.00 | 0.00 | 0.00 | 66 | 1015.0 |
| 20260507135503 | 55 | 204 | 4.0 | 11.0 | 0.00 | 0.00 | 0.00 | 66 | 1015.0 |
| 20260507135005 | 55 | 207 | 4.0 | 11.0 | 0.00 | 0.00 | 0.00 | 65 | 1015.0 |
| 20260507134503 | 55 | 203 | 5.0 | 11.0 | 0.00 | 0.00 | 0.00 | 64 | 1015.1 |
| 20260507134003 | 55 | 200 | 5.0 | 12.0 | 0.00 | 0.00 | 0.00 | 65 | 1015.2 |
| 20260507133504 | 55 | 200 | 5.0 | 14.0 | 0.00 | 0.00 | 0.00 | 63 | 1015.2 |
| 20260507133025 | 55 | 196 | 4.0 | 14.0 | 0.00 | 0.00 | 0.00 | 64 | 1015.2 |
| 20260507132505 | 55 | 189 | 4.0 | 11.0 | 0.00 | 0.00 | 0.00 | 64 | 1015.2 |
| 20260507132004 | 56 | 180 | 4.0 | 14.0 | 0.00 | 0.00 | 0.00 | 65 | 1015.2 |
| 20260507131524 | 56 | 192 | 4.0 | 14.0 | 0.00 | 0.00 | 0.00 | 64 | 1015.3 |
| 20260507131026 | 56 | 186 | 4.0 | 14.0 | 0.00 | 0.00 | 0.00 | 63 | 1015.3 |
| 20260507130503 | 56 | 179 | 4.0 | 11.0 | 0.00 | 0.00 | 0.00 | 63 | 1015.2 |
| 20260507130003 | 56 | 182 | 4.0 | 16.0 | 0.00 | 0.00 | 0.00 | 63 | 1015.2 |
| 20260507125525 | 56 | 179 | 4.0 | 16.0 | 0.00 | 0.00 | 0.00 | 62 | 1015.1 |
| 20260507125003 | 56 | 167 | 5.0 | 14.0 | 0.00 | 0.00 | 0.00 | 63 | 1015.2 |
| 20260507124524 | 56 | 173 | 5.0 | 15.0 | 0.00 | 0.00 | 0.00 | 63 | 1015.2 |
| 20260507124003 | 56 | 200 | 5.0 | 21.0 | 0.00 | 0.00 | 0.00 | 62 | 1015.2 |
| 20260507123503 | 56 | 199 | 5.0 | 21.0 | 0.00 | 0.00 | 0.00 | 62 | 1015.2 |
| 20260507123004 | 57 | 191 | 4.0 | 14.0 | 0.00 | 0.00 | 0.00 | 61 | 1015.2 |
| 20260507122504 | 57 | 189 | 4.0 | 15.0 | 0.00 | 0.00 | 0.00 | 61 | 1015.1 |
| 20260507122004 | 57 | 195 | 5.0 | 15.0 | 0.00 | 0.00 | 0.00 | 62 | 1015.2 |
| 20260507121504 | 57 | 203 | 5.0 | 14.0 | 0.00 | 0.00 | 0.00 | 61 | 1015.2 |
| 20260507121024 | 57 | 208 | 5.0 | 14.0 | 0.00 | 0.00 | 0.00 | 60 | 1015.1 |
| 20260507120505 | 58 | 202 | 4.0 | 14.0 | 0.00 | 0.00 | 0.00 | 60 | 1015.2 |
| 20260507120004 | 58 | 155 | 4.0 | 11.0 | 0.00 | 0.00 | 0.00 | 60 | 1015.2 |
| 20260507115505 | 58 | 179 | 5.0 | 12.0 | 0.00 | 0.00 | 0.00 | 62 | 1015.3 |
| 20260507115003 | 57 | 209 | 5.0 | 15.0 | 0.00 | 0.00 | 0.00 | 61 | 1015.3 |
| 20260507114525 | 57 | 217 | 5.0 | 15.0 | 0.00 | 0.00 | 0.00 | 63 | 1015.4 |
| 20260507114005 | 56 | 212 | 4.0 | 12.0 | 0.00 | 0.00 | 0.00 | 61 | 1015.3 |
| 20260507113504 | 57 | 189 | 5.0 | 15.0 | 0.00 | 0.00 | 0.00 | 62 | 1015.4 |
| 20260507113024 | 56 | 193 | 6.0 | 15.0 | 0.00 | 0.00 | 0.00 | 61 | 1015.4 |
| 20260507112503 | 56 | 210 | 7.0 | 14.0 | 0.00 | 0.00 | 0.00 | 61 | 1015.4 |
| 20260507112004 | 56 | 218 | 7.0 | 15.0 | 0.00 | 0.00 | 0.00 | 61 | 1015.4 |
| 20260507111504 | 56 | 210 | 6.0 | 15.0 | 0.00 | 0.00 | 0.00 | 62 | 1015.4 |